Timeline UpdatesTrip UpdatesNews PostsPvt PostsTravel TipsAdmin PostsConv PostsFollowed PostsChat RequestsBlog PostsPNR Posts

Disclaimer
Search
 
 
Fri Aug 29, 2014 15:29:12 ISTHomeTrainsΣChainsAtlasPNRForumGalleryNewsFAQTripsMembersLoginFeedback
No Recent News for this Train
Other Trains in the News **new
Latest...
.
Sat Feb 02, 2013 (04:10PM)
⇐ Return Journey: Train# 51187

51188/Katni - Bhusaval Passenger (UnReserved)

Oct 05 2013 (11:32PM)
Change Departure Station:
Change Arrival Station:
Post a Train Travel TipPost a Train Travel Tip **new
Post a Comment/Question/Picture/VideoPost a Comment/Question/Picture/Video
Pantry/Catering
✕ NO Pantry Car
✕ NO Catering
RSA - Rake Sharing
Rake/Coach Composition
Loco
KTE-ET: KTE/ET WDM-3A ET-BSL: BSL/ET WAP-4
News    PNR    Forum    Time-Table    Availability    Fare Chart    Map    Arr/Dep History    Trips    Gallery    ΣChains    X/O    Timeline    
Travel Time: 16h 30m    62 halts    Distance: 552 km    Avg Speed: 33 km/hr
Type: Passenger
Zone: CR/Central
Departs @ 00:30 (Avg 45m late)
Platform# 1
SMTWTFS
Jabalpur Junction/JBP 
Arrives @ 17:00 (Avg 3h 8m late)
Platform# 6
SMTWTFS
Bhusaval Junction/BSL 

62 halts. 68 intermediate Stations between Jabalpur Junction and Bhusaval Junction

Hide intermediate Stations  Show Old Time-Table

#CodeStation NameX/OArrivesAvgDepartsAvgHaltPFDay#KmSpeedElevZoneAddress
1KTEKatni Junction (6)  -22:20+5051-90.731387mWCRKatni, Madhya Pradesh
1.1KTESKatni South  22:22-22:22-  1-89.6 31386mWCRKatni, Madhya Pradesh
2MDRRMadhavnagar Road (2)X  22:30-22:31-1m--1-85.548398mWCRMadhavnagar, Madhya Pradesh
3NWRNiwar (2)X  22:41+2:2322:42+2:281m--1-77.552412mWCRPipraundh, Madhya Pradesh
4SNRRSansarpur (2)  22:51-22:52-1m--1-69.759436mWCRNational Highway 7, Madhya Pradesh
5SBDSleemanabad Road (2)  22:59+1:4923:00+1:501m--1-62.857434mWCRSleemanabad, Madhya Pradesh
6DDCEDundi (2)  23:10+2:2623:11+2:381m--1-53.360415mWCRDundi, Madhya Pradesh
7SHRSihora Road (2)X  23:26+1:1823:28+1:212m--1-38.461388mWCRJabalpur, Madhya Pradesh
8GSPRGosalpur (2)X  23:39+2:4023:40+2:411m--1-27.357396mWCRJabalpur, Madhya Pradesh
9DOEDeori (2)  23:51+2:4023:52+2:411m--1-16.848392mWCRJabalpur, Madhya Pradesh
10ADTLAdhartal (2)X  00:03+2:1500:04+2:211m--2-8.030393mWCRJabalpur, Madhya Pradesh
11JBP»Jabalpur Junction (4)»X  00:20+3900:30+4510m120.053416mWCRJabalpur, Madhya Pradesh
11.1HBGHowbagh Jabalpur (2)  00:33-00:33-  22.3 53405mSECRJabalpur, Madhya Pradesh
12MMLMadan Mahal (3)  00:34+3:2700:36+3:272m123.556428mWCRJabalpur, Madhya Pradesh
12.1KEQKachhpura (2)X  00:38-00:38-  25.3 56392mWCRJabalpur, Madhya Pradesh
13BRGTBheraghat (2)X  00:50+3:1500:51+3:221m--216.761389mWCRBheraghat, Madhya Pradesh
14BHTNBhitoni (2)X  01:04+3:2101:05+3:371m--229.858377mWCRJabalpur, Madhya Pradesh
15BMRBikrampur (2)  01:17+3:3701:18+3:411m--241.365353mWCRBikrampur Dist Narsingpur., Madhya Pradesh
16SRIDShridham (3)XO  01:29+2:4501:31+2:512m3253.254373mWCRShridham, Madhya Pradesh
17KKBKarak Bel (2)  01:48+3:4401:49+3:481m--268.529375mWCRKarak Bel, Madhya Pradesh
18BELDBelkhera (2)  01:58+3:4501:59+3:491m--272.933367mWCRState Highway 22, Madhya Pradesh
19GPCGhatpindrai (2)  02:09+3:4802:10+3:511m--278.435366mWCRGhatpindra, Madhya Pradesh
20NUNarsinghpur (2)X  02:20+2:5702:22+3:012m2284.270365mWCRNarsimhapur, Madhya Pradesh
21KYKareli (2)X  02:36+2:4802:37+2:501m22100.645361mWCRKareli, Madhya Pradesh
22KFYKarapgaon (2)XO  02:48-02:49-1m--2108.945363mWCRNational Highway 26, Madhya Pradesh
23BNEBohani (2)X  02:58+3:5802:59+4:041m--2115.778361mWCRNarsinghpur, Madhya Pradesh
24GARGadarwara (2)X  03:09+3:3103:10+3:341m22128.656352mWCRNarsinghpur, Madhya Pradesh
25SCKRSalichauka Road (2)X  03:25+4:0803:26+4:151m--2142.561355mWCRGadarwara, Madhya Pradesh
26JHTJunehta (2)X  03:36-03:37-1m--2152.655353mWCRState Highway 22, Madhya Pradesh
27BKHBankhedi (2)X  03:44+4:0703:46+4:132m--2159.067351mWCRBankheri, Madhya Pradesh
28PPIPipariya (3)X  04:03+3:0804:05+3:132m32178.040338mWCRPiparia, Madhya Pradesh
29SXFSobhapur (2)X  04:18-04:19-1m--2186.645338mWCRState Highway 22, Madhya Pradesh
30SGPSohagpur (2)X  04:31+4:1204:33+4:122m--2195.743340mWCRSohagpur, Madhya Pradesh
31GMDGuramkhedi (2)  04:47+4:0804:48+4:091m--2205.749337mWCRGuramkhedi, Madhya Pradesh
32BGTABagratawa (2)  05:04+4:0605:05+4:171m--2218.829338mWCRBagra Tawa, Madhya Pradesh
33SQLSontalai (2)X  05:19+4:1405:20+4:151m--2225.627329mWCRItarsi, Madhya Pradesh
34GROGurra (2)X  05:40+3:5005:41+3:521m--2234.616327mWCRItarsi, Madhya Pradesh
35ETItarsi Junction (7)  06:20+2:4306:45+2:4425m--2245.257329mWCRItarsi 461111, Madhya Pradesh
35.1ITMAItarsi Marshalling Yard  06:46-06:46-  2246.1 57324mWCRItarsi, Madhya Pradesh
35.2JUHJujharpur CabinO  06:46-06:46-  2246.2 57322mWCRItarsi, Madhya Pradesh
35.3ETBItarsi B CabinX  06:52-06:52-  2251.4 57320mWCRJamani, Madhya Pradesh
36DRADularia (2)  06:58+3:5706:59+4:081m--2257.442318mWCRItarsi, Madhya Pradesh
37KTZKhutwansa (2)X  07:07-07:08-1m--2263.149325mWCRSH 15, Madhya Pradesh
38DKIDharamkundi (2)O  07:17+4:0307:18+4:041m--2270.431314mWCRSH 15, Madhya Pradesh
39BPFBanapura (2)  07:34+3:5607:35+4:011m--2278.649314mWCRBanapura, Madhya Pradesh
40BIFBhaironpur (2)O  07:44+4:0007:45+4:011m--2286.049322mWCRSH 15, Madhya Pradesh
41PGLPagdhal (2)X  07:54+4:0007:55+4:031m--2293.341317mWCRPagdhal, Madhya Pradesh
42CGOChhidgaon (2)X  08:01-08:02-1m--2297.426309mWCRHarda, Madhya Pradesh
43TBNTimarni (2)  08:24+4:0808:25+4:091m--2306.947308mWCRTimarni, Madhya Pradesh
44CRKCharkhera (2)O  08:34+3:4708:35+3:541m--2314.023298mWCRBarkalan, Madhya Pradesh
45HDHarda (3)X  08:53+4:1308:55+4:142m--2321.064289mWCRHarda, Madhya Pradesh
46PALPalasner (2)  09:02+3:4409:03+3:451m--2328.439296mWCRHarda, Madhya Pradesh
47MUOMasangaon (2)XO  09:12+3:4209:13+3:431m--2334.312303mWCRSH 15, Madhya Pradesh
48BRIBhiringi (2)  09:39+3:2309:40+3:311m--2339.5100294mWCRSH 15, Madhya Pradesh
49KROKurawan (2)X  09:44-09:45-1m--2346.229297mWCRSH 15, Madhya Pradesh
50KKNKhirkiya (2)O  09:58+3:4310:00+3:462m12352.539281mWCRSH 15, Madhya Pradesh
51DRHIDagarhkeri (2)XO  10:17+3:4110:18+3:481m--2363.520274mWCRState Highway 15, Madhya Pradesh
52BRUDBarud (2)X  10:47+3:3010:48+3:451m--2373.076273mWCRKhandwa, Madhya Pradesh
53CAERChhanera (2)XO  10:56+3:4810:58+3:532m--2383.221283mWCRChhanera, Madhya Pradesh
54CKKDCharkheda Khurd (2)  11:17+3:4411:18+3:461m--2390.023274mWCRKhandwa, Madhya Pradesh
55SGBJSurgaon Banjari (2)  11:47+3:2611:48+3:271m--2401.171298mWCRKhandwa, Madhya Pradesh
56TLVTalvadiya (2)O  11:58+3:3012:00+3:392m--2412.956308mWCRKhandwa, Madhya Pradesh
57MTAMathela (2)XO  12:09+3:3712:10+3:381m--2421.26322mWCRKhandwa, Madhya Pradesh
58KNWKhandwa Junction (5)  13:20+2:5613:30+2:5510m--2428.644310mCRKhandwa, Madhya Pradesh
59BRGJBargaon Gujar (2)  13:37+2:4113:38+2:411m--2433.860316mCRKhandwa, Madhya Pradesh
60BMABagmar (2)X  13:44+2:4213:45+2:461m--2439.866335mCRState Highway 27, Madhya Pradesh
61KDKKohdad (2)X  13:49+3:5013:50+3:501m--2444.257344mCRState Highway 15, Madhya Pradesh
62DGNDongargaon (2)  13:58+3:5013:59+3:571m12451.758373mCRBorgaon, Madhya Pradesh
63SXASagphata (2)O  14:07+4:0014:08+4:001m--2459.551350mCRKhandwa, Madhya Pradesh
64MWAMandwa (2)X  14:15+3:5814:16+3:581m--2465.444317mCRState Highway 27, Madhya Pradesh
65NPNRNepanagar (2)  14:24+3:4614:26+3:502m--2471.353289mCRState Highway 27, Madhya Pradesh
66CDIChandni (2)  14:34+4:0814:35+4:081m--2478.377276mCRNepanagar Rd, Madhya Pradesh
67AGQAsirgarh Road (2)X  14:43+4:0814:44+4:081m--2488.667259mCRState Highway 27, Madhya Pradesh
68BAUBurhanpur (2)X  14:52+3:0714:55+3:073m12497.562269mCRBurhanpur, Madhya Pradesh
69WGAWaghoda  15:05+4:0815:06+4:091m--2507.860259mCRChorwad, Maharashtra
70RVRaver (2)X  15:16+4:0915:18+4:182m--2517.768242mCRJalgaon, Maharashtra
71NBNimbhoraX  15:27+4:1915:28+4:191m--2527.858229mCRJalgaon, Maharashtra
72SAVSavda (2)X  15:37+4:2015:38+4:241m--2536.658220mCRSavda, Maharashtra
73DSKDuskheda (2)X  15:47+4:2415:48+4:471m--2545.26213mCRDuskheda Station, Maharashtra
73.1BSBNBhusaval B Cabin  16:24-16:24-  2548.6 6214mCRBhusawal, Maharashtra
74BSL•Bhusaval Junction (8)•  17:00+3:08-62552.0-208mCRBhusaval 425201, Maharashtra
Scroll to Top
Scroll to Bottom